SWOT

Last updated on Sat Jun 21 2025 00:02:29 GMT+0000 (Coordinated Universal Time)

1 54754U 22173A 25171.42978273 .00000097 00000+0 67475-4 0 9996 2 54754 77.6088 163.6459 0000991 156.5162 203.6035 14.00173125128523
UTC large
Height (km)
Speed (km/s)
/
Latitude / Longitude
Inclination (degrees)
Orbital Period (minutes)
Azimuth
Elevation
Range (km)
Doppler Factor

Next 0 passes for location: London (51.5072 / 0.1276)

Sorry there are no passes over London.